Wind_Speed
12 12 11 10 10 10 10 9 9 8 8 7 7 8 8 8 8 8 8 9 9 9 9 9 9 8 8 8 8 9 9 9 9 8 8 8 9 9 9 10 10 10 10
13 13 12 11 11 11 10 10 9 9 9 8 8 8 8 9 10 10 10 10 10 11 9 9 9 9 9 9 9 9 9 9 9 9 9 8 9 10 10 11 11 11 11
15 14 14 12 12 11 11 11 10 9 9 10 9 9 10 10 11 11 11 11 10 10 9 10 10 11 11 11 10 10 10 10 10 10 10 10 10 10 11 11 11 11 12
16 16 15 14 13 13 13 12 11 11 11 11 11 11 11 11 12 12 11 11 11 11 11 11 10 11 11 12 12 11 10 10 10 11 11 11 11 11 11 11 12 12 12
17 17 17 17 16 15 15 14 13 13 13 13 13 12 12 12 12 12 12 11 11 11 12 11 11 11 11 11 12 12 11 11 11 11 12 11 11 11 12 12 13 13 14
18 18 19 19 18 17 16 16 15 15 15 15 15 14 14 13 13 13 12 12 12 13 13 13 12 12 12 12 12 12 12 11 11 12 12 12 13 13 13 14 14 14 15
19 19 20 20 19 19 18 18 17 17 16 16 16 16 15 15 14 13 13 13 13 13 13 13 13 13 13 13 12 12 12 12 12 12 13 13 14 15 15 16 16 16 16
19 19 20 21 21 20 20 19 19 18 18 18 18 17 17 17 16 15 15 15 15 15 14 14 14 14 14 14 13 13 13 13 14 14 14 14 15 16 16 17 17 18 17
19 19 20 21 21 21 20 20 20 20 20 19 19 19 19 19 18 17 17 17 17 16 16 16 16 16 15 15 15 14 14 15 15 15 16 16 16 16 17 17 17 18 19
19 19 20 21 20 21 21 21 21 21 20 21 21 21 22 21 20 19 18 18 18 18 17 18 18 17 17 17 17 17 17 17 17 17 17 17 18 18 18 18 19 20 20
19 20 21 21 22 21 22 22 22 22 23 23 23 23 23 22 22 21 20 20 20 19 19 19 18 18 18 19 18 18 18 19 19 19 19 19 18 18 19 20 20 20 20
21 21 22 22 23 23 23 24 24 24 24 24 24 24 23 23 23 23 22 22 21 20 20 19 19 19 19 19 19 20 20 20 20 20 20 20 20 20 20 20 20 21 21
22 23 24 25 24 24 24 24 25 25 26 26 26 25 25 24 25 25 25 24 23 22 21 21 20 20 20 20 20 20 21 21 20 20 21 21 21 21 21 21 21 21 22
23 24 24 25 25 26 25 25 25 26 26 26 26 26 26 26 26 25 25 24 24 23 22 21 21 21 21 21 21 22 22 21 21 21 21 21 21 21 22 22 22 22 22
24 24 25 25 26 27 26 26 26 26 27 27 26 26 26 26 26 25 24 24 24 23 23 22 22 22 22 22 22 23 22 22 23 22 22 22 22 23 22 22 22 22 23
26 26 26 26 26 26 27 27 27 27 27 27 27 27 26 26 26 25 24 24 24 23 23 23 23 24 23 23 23 24 23 23 23 23 23 23 23 23 23 22 22 23 24
27 27 27 27 26 26 26 27 26 27 27 27 27 27 27 26 25 25 25 25 24 24 23 23 23 24 23 23 23 24 24 24 24 24 23 24 23 23 23 23 24 24 25
28 27 27 27 27 27 26 26 27 27 27 27 28 28 27 26 26 26 25 25 25 24 24 24 25 24 24 24 24 24 25 25 25 25 24 24 24 24 24 23 24 25 25
27 28 28 28 27 27 27 26 27 28 28 28 28 29 28 26 26 26 25 25 25 26 25 25 26 26 25 25 25 26 25 25 25 26 25 25 25 25 25 24 24 25 25
27 27 27 28 27 27 28 27 26 26 26 27 27 28 27 27 26 26 26 25 25 25 25 25 26 26 27 27 27 27 26 25 25 25 25 26 26 26 26 25 25 25 26
27 27 27 27 27 27 28 28 27 26 27 27 27 27 27 27 27 26 26 26 26 26 26 26 25 26 26 26 26 26 26 26 25 25 25 26 26 26 26 26 26 26 27
26 26 26 26 27 27 27 28 28 27 27 27 26 27 27 28 27 27 26 26 26 26 25 25 25 25 25 26 26 26 26 26 25 25 25 26 26 26 26 27 27 27 27
26 26 26 26 26 27 27 27 27 27 27 26 26 25 26 27 27 26 26 25 25 25 25 24 24 24 24 25 26 27 27 26 26 26 26 27 27 27 26 27 27 27 27
27 27 27 27 26 26 26 26 26 26 26 26 25 25 25 25 26 26 25 25 26 26 25 25 24 24 25 25 25 26 27 28 27 27 26 27 27 27 27 27 27 27 27
28 28 28 27 26 25 25 25 25 25 25 25 25 25 25 26 26 26 26 25 25 25 25 25 25 26 26 26 26 25 26 27 27 27 27 28 28 28 27 26 25 25 25
27 27 27 26 25 25 26 26 25 25 25 24 25 25 25 26 26 26 26 26 26 26 26 26 26 26 26 26 26 26 26 26 27 27 27 28 27 27 27 26 25 25 25
Wind_Direction
263 264 268 269 269 271 272 273 273 272 266 266 270 273 271 272 271 277 278 280 282 288 283 282 281 282 280 283 284 281 280 276 271 272 271 262 261 260 260 258 259 257 251
259 260 261 265 265 266 267 271 269 266 262 263 266 272 272 271 272 273 275 279 285 290 286 280 278 279 280 283 285 281 276 275 271 269 269 267 264 263 263 263 263 260 255
254 255 256 260 260 261 262 265 267 264 260 262 266 268 270 272 274 274 275 279 284 285 287 287 283 278 277 278 279 280 275 272 271 269 269 265 265 266 263 262 262 260 258
251 252 255 257 258 261 262 261 263 263 264 263 264 266 270 274 275 274 273 275 278 280 284 287 284 281 279 277 275 274 275 271 271 272 273 268 264 267 269 264 263 262 262
252 253 254 254 256 258 261 260 262 263 264 264 264 266 267 273 275 273 271 273 277 279 282 282 280 281 281 279 277 275 271 271 271 272 274 272 266 264 266 269 268 264 263
252 252 252 253 255 256 257 259 262 263 262 262 262 264 266 270 274 273 270 271 276 278 276 276 277 279 280 279 279 276 272 269 269 271 272 273 270 268 266 268 269 268 268
253 251 251 251 253 254 254 257 261 263 261 261 263 265 266 268 269 269 271 272 274 276 276 276 276 277 278 278 278 276 273 269 269 273 274 274 275 273 270 269 270 272 273
252 252 251 251 252 253 253 255 260 263 263 264 265 267 267 267 267 267 270 271 273 273 273 275 276 275 274 274 275 273 271 270 271 272 273 273 276 277 274 271 270 272 273
253 254 252 252 252 253 253 255 260 262 262 263 262 266 267 268 266 266 268 270 271 271 272 273 275 274 273 272 271 271 271 272 274 277 274 274 276 277 276 273 270 271 270
255 254 252 251 251 252 255 258 260 261 263 263 263 266 267 266 264 268 269 269 270 271 272 273 272 271 272 272 271 271 272 271 272 274 273 274 275 275 276 274 272 273 271
256 256 255 254 252 254 256 258 258 260 263 265 264 264 266 264 263 267 269 270 270 270 273 273 269 269 269 271 271 270 271 270 271 272 274 274 276 276 275 274 274 273 272
256 257 256 255 256 256 258 259 258 260 262 263 263 263 264 264 265 267 269 270 269 270 271 269 268 269 269 270 271 270 269 269 270 271 272 273 276 278 277 276 276 275 275
257 257 255 255 257 259 259 260 259 259 261 262 262 262 262 264 267 269 268 267 267 268 269 269 267 268 267 267 268 270 269 269 270 270 271 273 275 277 278 278 278 277 276
258 258 258 255 256 259 259 260 261 260 260 261 261 262 261 263 266 267 266 265 265 265 267 268 266 266 266 266 267 269 269 269 270 271 271 272 273 276 276 277 278 278 277
257 258 259 258 258 259 260 262 262 261 261 262 262 262 261 263 264 265 265 264 265 265 265 264 264 266 267 267 267 268 269 270 270 270 271 272 274 275 276 277 277 278 279
256 257 259 260 261 261 261 262 261 261 262 263 264 262 262 262 264 265 265 264 263 263 264 263 264 265 267 266 266 268 270 271 271 271 272 272 273 275 275 277 277 278 278
256 258 259 260 261 262 260 259 260 262 263 263 262 260 262 263 263 264 265 264 264 264 268 269 268 266 266 265 266 268 270 271 272 271 272 272 273 275 277 276 277 277 278
257 258 259 261 263 262 260 261 260 262 261 259 259 259 261 263 264 264 266 267 266 267 269 270 271 269 266 265 267 269 269 270 271 271 271 271 272 275 277 277 277 277 278
257 257 259 261 262 262 261 264 264 261 257 257 258 259 258 260 264 264 266 268 269 268 268 270 269 268 266 266 268 269 270 271 271 270 272 272 273 276 277 277 278 279 278
256 256 258 259 261 262 263 264 264 262 258 258 258 260 258 260 263 265 266 267 269 269 269 271 270 270 267 267 270 270 272 272 271 272 272 273 274 275 276 278 281 280 280
255 256 258 260 261 263 264 264 267 264 262 261 262 260 258 259 262 264 264 266 269 270 270 270 269 269 268 267 268 270 271 272 273 274 274 274 274 275 277 280 281 281 281
256 256 260 262 263 264 266 268 270 268 263 262 261 259 258 258 261 263 263 266 268 269 269 268 267 268 268 269 269 269 269 273 274 274 274 275 275 275 276 279 281 281 282
259 259 260 262 264 265 267 270 271 270 265 262 260 258 257 257 260 261 260 264 266 268 270 269 268 269 268 268 269 269 270 272 273 274 273 273 275 275 276 278 280 280 281
258 260 261 263 266 265 267 268 269 270 269 265 261 258 258 259 259 261 264 266 267 267 268 270 269 269 269 269 270 269 268 269 270 271 272 272 273 274 274 277 277 278 279
258 259 260 263 265 265 267 267 267 267 268 266 262 260 260 260 262 265 266 267 267 268 269 271 271 269 270 271 270 269 269 269 270 272 272 273 274 276 275 276 276 277 278
258 258 260 261 263 265 266 266 265 266 267 265 263 264 265 266 266 265 268 268 268 267 268 269 270 271 270 269 269 269 269 269 272 272 273 275 276 275 275 275 276 277 279
Height
5880 5880 5879 5879 5879 5878 5878 5877 5877 5876 5876 5875 5875 5875 5874 5874 5874 5873 5873 5872 5871 5870 5870 5870 5869 5869 5869 5868 5867 5867 5866 5866 5865 5865 5865 5864 5864 5864 5864 5864 5864 5864 5864
5877 5877 5877 5877 5876 5876 5876 5875 5875 5874 5874 5873 5873 5873 5872 5872 5872 5871 5871 5870 5870 5869 5868 5868 5868 5867 5866 5866 5865 5865 5864 5864 5863 5863 5863 5863 5863 5862 5862 5862 5862 5862 5862
5874 5874 5874 5874 5874 5873 5873 5873 5872 5872 5872 5871 5871 5870 5870 5870 5869 5869 5868 5868 5868 5867 5866 5865 5865 5864 5864 5863 5862 5862 5862 5861 5861 5861 5861 5861 5861 5860 5860 5859 5859 5859 5859
5870 5871 5871 5871 5871 5871 5870 5870 5870 5870 5869 5869 5868 5868 5867 5867 5867 5866 5866 5865 5865 5864 5864 5863 5862 5861 5861 5860 5860 5859 5859 5859 5858 5858 5858 5858 5857 5857 5857 5857 5856 5856 5856
5866 5867 5867 5867 5867 5867 5867 5867 5867 5867 5867 5866 5866 5865 5865 5864 5864 5863 5863 5862 5862 5861 5861 5860 5859 5859 5858 5858 5857 5856 5856 5856 5856 5855 5855 5855 5855 5855 5855 5854 5854 5853 5853
5862 5862 5863 5863 5863 5863 5864 5864 5864 5864 5863 5863 5863 5862 5862 5861 5861 5860 5860 5859 5859 5858 5857 5857 5856 5856 5855 5855 5854 5853 5853 5853 5852 5852 5852 5852 5852 5852 5851 5851 5850 5850 5850
5857 5857 5858 5858 5859 5859 5859 5859 5860 5860 5860 5859 5859 5859 5858 5858 5857 5857 5857 5856 5855 5855 5854 5854 5853 5853 5852 5852 5851 5850 5850 5850 5849 5849 5849 5849 5848 5848 5848 5848 5847 5847 5846
5852 5852 5853 5853 5854 5854 5855 5855 5855 5855 5855 5855 5855 5855 5855 5854 5854 5854 5853 5853 5852 5851 5851 5850 5850 5849 5849 5848 5848 5847 5846 5846 5846 5846 5845 5845 5845 5844 5844 5844 5843 5843 5842
5847 5847 5847 5848 5849 5850 5850 5851 5851 5851 5851 5850 5850 5850 5850 5850 5850 5850 5849 5849 5848 5847 5847 5846 5845 5845 5845 5844 5844 5843 5843 5842 5842 5842 5841 5841 5840 5840 5839 5839 5839 5839 5838
5841 5842 5842 5843 5844 5844 5845 5846 5846 5846 5846 5846 5846 5846 5845 5845 5845 5845 5844 5844 5844 5843 5842 5841 5840 5840 5840 5839 5839 5838 5838 5838 5838 5837 5837 5836 5836 5835 5835 5834 5834 5833 5833
5836 5836 5837 5838 5838 5839 5840 5840 5841 5841 5841 5841 5840 5840 5840 5840 5840 5839 5839 5839 5838 5838 5837 5836 5835 5835 5834 5834 5834 5833 5833 5833 5833 5833 5832 5832 5831 5830 5829 5829 5828 5828 5828
5830 5830 5831 5831 5832 5833 5834 5834 5835 5835 5835 5834 5834 5835 5834 5834 5834 5833 5833 5833 5832 5832 5831 5830 5830 5829 5829 5828 5828 5828 5827 5827 5827 5827 5827 5826 5826 5825 5824 5824 5823 5822 5822
5823 5823 5824 5824 5825 5826 5827 5827 5828 5828 5828 5828 5828 5828 5828 5828 5828 5827 5827 5826 5826 5826 5825 5824 5824 5824 5823 5823 5822 5822 5821 5821 5821 5821 5821 5820 5820 5820 5819 5818 5817 5816 5816
5816 5816 5817 5817 5818 5819 5820 5820 5821 5821 5821 5821 5821 5821 5821 5821 5821 5820 5820 5820 5819 5819 5819 5818 5818 5817 5817 5817 5816 5816 5815 5815 5815 5815 5814 5814 5814 5814 5813 5812 5811 5810 5810
5809 5809 5810 5810 5811 5812 5812 5813 5813 5813 5814 5814 5814 5814 5814 5814 5813 5813 5813 5813 5812 5812 5812 5811 5811 5811 5811 5810 5810 5809 5809 5808 5808 5808 5807 5808 5807 5807 5806 5806 5805 5804 5803
5802 5802 5803 5803 5804 5804 5804 5805 5805 5806 5806 5807 5807 5807 5806 5806 5805 5805 5805 5805 5805 5805 5805 5804 5804 5804 5804 5804 5803 5803 5802 5802 5801 5801 5800 5801 5800 5800 5800 5799 5798 5798 5797
5794 5795 5795 5796 5796 5797 5796 5797 5798 5798 5799 5799 5799 5799 5799 5799 5798 5798 5798 5798 5798 5798 5797 5797 5797 5797 5797 5797 5796 5796 5796 5795 5794 5794 5793 5793 5793 5793 5793 5792 5791 5790 5789
5787 5788 5788 5789 5789 5789 5789 5789 5790 5791 5791 5791 5791 5791 5791 5791 5791 5791 5791 5791 5791 5790 5790 5790 5790 5790 5790 5790 5790 5789 5788 5788 5788 5787 5787 5787 5786 5786 5786 5785 5784 5783 5782
5779 5780 5781 5781 5781 5782 5782 5783 5783 5782 5782 5782 5783 5783 5783 5784 5784 5784 5784 5783 5783 5783 5783 5783 5783 5783 5783 5783 5783 5782 5781 5781 5781 5781 5780 5780 5780 5779 5779 5778 5777 5776 5775
5771 5772 5773 5773 5774 5774 5775 5775 5774 5774 5774 5774 5774 5775 5775 5776 5777 5776 5776 5776 5776 5776 5776 5776 5775 5775 5775 5776 5775 5775 5774 5774 5774 5774 5773 5773 5773 5773 5772 5771 5770 5769 5768
5763 5764 5765 5766 5766 5767 5767 5767 5767 5767 5767 5766 5766 5767 5767 5768 5769 5769 5768 5768 5768 5768 5768 5768 5768 5767 5767 5767 5768 5767 5767 5767 5767 5766 5766 5766 5766 5765 5764 5763 5762 5761 5760
5756 5756 5757 5758 5758 5759 5759 5759 5759 5759 5759 5759 5759 5759 5759 5760 5761 5761 5760 5759 5760 5760 5760 5759 5759 5759 5759 5759 5760 5760 5760 5760 5759 5759 5758 5758 5758 5757 5757 5756 5755 5753 5752
5748 5749 5750 5750 5750 5751 5751 5751 5751 5751 5751 5751 5751 5751 5751 5752 5752 5753 5753 5752 5752 5752 5752 5751 5751 5751 5751 5751 5752 5752 5752 5751 5751 5752 5751 5751 5750 5749 5749 5748 5747 5745 5744
5740 5741 5742 5742 5742 5743 5743 5743 5743 5743 5743 5743 5743 5743 5744 5744 5744 5744 5744 5744 5744 5744 5744 5744 5744 5744 5744 5744 5744 5744 5743 5743 5743 5744 5743 5743 5742 5742 5741 5740 5739 5737 5736
5732 5733 5733 5734 5734 5735 5735 5735 5735 5735 5735 5735 5735 5736 5736 5737 5736 5737 5737 5737 5737 5736 5736 5736 5736 5736 5736 5736 5735 5735 5735 5735 5735 5735 5735 5735 5734 5734 5733 5731 5730 5729 5728
5725 5725 5726 5726 5727 5727 5727 5727 5727 5727 5728 5727 5727 5728 5728 5729 5729 5729 5729 5728 5729 5729 5728 5728 5728 5728 5728 5727 5727 5727 5727 5727 5727 5727 5727 5727 5726 5725 5724 5723 5722 5721 5720